2023/01/31 00:00:00,110.3,-2.2
2023/01/31 00:10:00,110.1,-2.2
2023/01/31 00:20:00,110.0,-2.1
2023/01/31 00:30:00,110.0,-2.4
2023/01/31 00:40:00,109.9,-3.2
2023/01/31 00:50:00,109.8,-3.4
2023/01/31 01:00:00,109.7,-3.4
2023/01/31 01:10:00,109.7,-3.3
2023/01/31 01:20:00,109.6,-3.2
2023/01/31 01:30:00,109.5,-3.2
2023/01/31 01:40:00,109.3,-2.8
2023/01/31 01:50:00,109.2,-2.6
2023/01/31 02:00:00,109.1,-2.5
2023/01/31 02:10:00,109.0,-2.5
2023/01/31 02:20:00,109.0,-2.4
2023/01/31 02:30:00,109.1,-2.4
2023/01/31 02:40:00,109.1,-2.3
2023/01/31 02:50:00,109.0,-2.4
2023/01/31 03:00:00,108.9,-2.6
2023/01/31 03:10:00,108.8,-2.5
2023/01/31 03:20:00,108.7,-2.3
2023/01/31 03:30:00,108.7,-2.2
2023/01/31 03:40:00,109.0,-2.0
2023/01/31 03:50:00,109.1,-2.1
2023/01/31 04:00:00,108.9,-2.1
2023/01/31 04:10:00,108.8,-2.4
2023/01/31 04:20:00,108.8,-2.4
2023/01/31 04:30:00,108.7,-2.2
2023/01/31 04:40:00,108.6,-2.5
2023/01/31 04:50:00,108.5,-2.8
2023/01/31 05:00:00,108.3,-2.5
2023/01/31 05:10:00,108.2,-2.7
2023/01/31 05:20:00,108.1,-2.7
2023/01/31 05:30:00,108.0,-2.9
2023/01/31 05:40:00,107.9,-2.9
2023/01/31 05:50:00,107.9,-2.7
2023/01/31 06:00:00,107.8,-2.7
2023/01/31 06:10:00,107.7,-2.7
2023/01/31 06:20:00,107.6,-2.5
2023/01/31 06:30:00,107.5,-2.5
2023/01/31 06:40:00,107.7,-2.4
2023/01/31 06:50:00,107.6,-2.4
2023/01/31 07:00:00,107.5,-2.3
2023/01/31 07:10:00,107.4,-2.4
2023/01/31 07:20:00,107.3,-2.2
2023/01/31 07:30:00,107.3,-2.2
2023/01/31 07:40:00,107.3,-2.1
2023/01/31 07:50:00,107.5,-1.8
2023/01/31 08:00:00,107.4,-1.8
2023/01/31 08:10:00,107.4,-1.7
2023/01/31 08:20:00,107.4,-1.5
2023/01/31 08:30:00,107.3,-1.4
2023/01/31 08:40:00,107.8,-1.2
2023/01/31 08:50:00,108.9,-0.9
2023/01/31 09:00:00,109.1,-0.9
2023/01/31 09:10:00,109.1,-0.7
2023/01/31 09:20:00,109.1,-0.5
2023/01/31 09:30:00,109.0, 0.2
2023/01/31 09:40:00,108.9, 0.7
2023/01/31 09:50:00,108.9, 0.5
2023/01/31 10:00:00,108.7, 0.0
2023/01/31 10:10:00,108.5,-0.4
2023/01/31 10:20:00,108.5, 0.1
2023/01/31 10:30:00,108.7, 1.6
2023/01/31 10:40:00,108.6, 2.4
2023/01/31 10:50:00,108.2, 1.9
2023/01/31 11:00:00,108.0, 2.3
2023/01/31 11:10:00,107.9, 2.2
2023/01/31 11:20:00,108.0, 2.0
2023/01/31 11:30:00,108.2, 4.1
2023/01/31 11:40:00,108.0, 6.5
2023/01/31 11:50:00,108.8, 6.9
2023/01/31 12:00:00,109.3, 8.8
2023/01/31 12:10:00,---, 7.3
2023/01/31 12:20:00,---,10.2
2023/01/31 12:30:00,190.4, 7.9
2023/01/31 12:40:00,190.3, 9.6
2023/01/31 12:50:00,190.3, 8.1
2023/01/31 13:00:00,190.3, 8.1
2023/01/31 13:10:00,190.3, 6.6
2023/01/31 13:20:00,187.3, 7.1
2023/01/31 13:30:00,186.9, 7.4
2023/01/31 13:40:00,186.2, 6.6
2023/01/31 13:50:00,185.7, 6.7
2023/01/31 14:00:00,185.2, 6.4
2023/01/31 14:10:00,184.8, 5.9
2023/01/31 14:20:00,---, 5.6
2023/01/31 14:30:00,101.8, 4.3
2023/01/31 14:40:00,102.2, 3.7
2023/01/31 14:50:00,101.7, 3.1
2023/01/31 15:00:00,101.1, 2.7
2023/01/31 15:10:00,100.5, 2.2
2023/01/31 15:20:00,100.5, 1.8
2023/01/31 15:30:00,100.4, 1.4
2023/01/31 15:40:00,100.2, 1.1
2023/01/31 15:50:00,100.2, 1.2
2023/01/31 16:00:00,100.2, 1.0
2023/01/31 16:10:00,100.0, 0.8
2023/01/31 16:20:00,100.0, 0.8
2023/01/31 16:30:00,99.9, 0.7
2023/01/31 16:40:00,99.8, 0.5
2023/01/31 16:50:00,99.7, 0.4
2023/01/31 17:00:00,99.6,-0.5
2023/01/31 17:10:00,99.6,-0.4
2023/01/31 17:20:00,99.4,-0.5
2023/01/31 17:30:00,99.2,-0.4
2023/01/31 17:40:00,99.1,-0.3
2023/01/31 17:50:00,99.0,-0.6
2023/01/31 18:00:00,98.8,-0.8
2023/01/31 18:10:00,98.8,-1.2
2023/01/31 18:20:00,98.7,-1.0
2023/01/31 18:30:00,98.6,-1.1
2023/01/31 18:40:00,98.5,-1.1
2023/01/31 18:50:00,98.5,-1.5
2023/01/31 19:00:00,98.4,-1.8
2023/01/31 19:10:00,98.3,-2.3
2023/01/31 19:20:00,98.3,-2.4
2023/01/31 19:30:00,98.2,-2.4
2023/01/31 19:40:00,98.1,-2.8
2023/01/31 19:50:00,98.0,-2.1
2023/01/31 20:00:00,97.9,-2.4
2023/01/31 20:10:00,97.8,-2.2
2023/01/31 20:20:00,97.7,-2.6
2023/01/31 20:30:00,97.6,-2.6
2023/01/31 20:40:00,97.6,-2.3
2023/01/31 20:50:00,97.5,-1.4
2023/01/31 21:00:00,97.5,-1.7
2023/01/31 21:10:00,97.4,-2.0
2023/01/31 21:20:00,97.2,-2.0
2023/01/31 21:30:00,97.1,-2.1
2023/01/31 21:40:00,97.0,-2.0
2023/01/31 21:50:00,96.9,-2.3
2023/01/31 22:00:00,96.8,-3.0
2023/01/31 22:10:00,96.7,-2.7
2023/01/31 22:20:00,96.6,-2.4
2023/01/31 22:30:00,96.5,-3.1
2023/01/31 22:40:00,96.4,-3.1
2023/01/31 22:50:00,96.3,-3.2
2023/01/31 23:00:00,96.2,-2.9
2023/01/31 23:10:00,96.0,-2.3
2023/01/31 23:20:00,95.9,-2.3
2023/01/31 23:30:00,95.8,-2.0
2023/01/31 23:40:00,95.7,-2.3
2023/01/31 23:50:00,95.7,-1.9
